{"data":{"norad_id":66620,"epoch":"2026-09-20T09:59:42.563040Z","epoch_age_seconds":93686,"freshness":"FRESH","line1":"1 66620U 25271D   26263.41646485  .00007905  00000+0  24490-3 0  9996","line2":"2 66620  53.1604 313.7934 0001971 149.1044 211.0075 15.34394635 47406","mean_motion":15.34394635,"eccentricity":0.0001971,"inclination_deg":53.1604,"raan_deg":313.7934,"arg_perigee_deg":149.1044,"mean_anomaly_deg":211.0075,"bstar":0.0002449,"rev_number":4740,"period_min":93.848086219358,"perigee_km":461.3708534099,"apogee_km":464.06751891848,"semimajor_km":6840.8561861642,"source":"CELESTRAK","updated_at":"2026-09-21T09:00:35.982521Z"}}